When you browse on this site, cookies collect data to enhance your experience and personalize the content and advertising you see.
Visit our Privacy Policy to learn more. By continuing to use the site, you agree to this use of cookies and data.
  • In Hungary
  • List of Countries
  • For 7 days
  • Water Temperature
  • Weather Map
  • News
  • Weather Widgets
  • user-avatar
    Login

    Hourly Weather Lisino

    Today, 21 February, Friday

    Time Temperature Precipitation Wind Pressure Humidity
    00:00 -1°C° 0 mm 2 mps 750 mmHg 92%
    01:00 -1°C° 0 mm 2 mps 750 mmHg 92%
    02:00 -1°C° 0 mm 2 mps 750 mmHg 93%
    03:00 -1°C° 0 mm 2 mps 750 mmHg 91%
    04:00 -1°C° 0 mm 3 mps 749 mmHg 90%
    05:00 -1°C° 0 mm 3 mps 749 mmHg 89%
    06:00 -1°C° 0 mm 3 mps 749 mmHg 86%
    07:00 -1°C° 0 mm 3 mps 749 mmHg 84%
    08:00 -2°C° 0 mm 4 mps 749 mmHg 81%
    15:00 +2°C° 0 mm 5 mps 748 mmHg 67%
    16:00 +1°C° 0 mm 5 mps 748 mmHg 70%
    17:00 0°C° 0 mm 4 mps 748 mmHg 73%
    18:00 0°C° 0 mm 4 mps 748 mmHg 74%
    19:00 0°C° 0 mm 4 mps 748 mmHg 75%
    20:00 0°C° 0 mm 5 mps 749 mmHg 76%
    21:00 0°C° 0 mm 5 mps 749 mmHg 77%
    22:00 0°C° 0 mm 5 mps 749 mmHg 78%
    23:00 -1°C° 0 mm 5 mps 749 mmHg 79%

    Tomorrow, 22 February, Saturday

    Time Temperature Precipitation Wind Pressure Humidity
    00:00 -1°C° 0 mm 4 mps 749 mmHg 84%
    01:00 -1°C° 0 mm 4 mps 749 mmHg 88%
    02:00 -1°C° 0 mm 4 mps 749 mmHg 93%
    03:00 -1°C° 0 mm 4 mps 749 mmHg 92%
    04:00 -1°C° 0 mm 4 mps 749 mmHg 92%
    05:00 -1°C° 0 mm 4 mps 749 mmHg 91%
    06:00 -1°C° 0 mm 4 mps 749 mmHg 91%
    07:00 -1°C° 0 mm 5 mps 749 mmHg 90%
    08:00 -1°C° 0 mm 5 mps 749 mmHg 90%
    09:00 0°C° 0 mm 5 mps 748 mmHg 87%
    10:00 0°C° 0 mm 5 mps 748 mmHg 83%
    11:00 -1°C° 0 mm 6 mps 747 mmHg 80%
    12:00 +1°C° 0 mm 6 mps 747 mmHg 78%
    13:00 +1°C° 0 mm 6 mps 746 mmHg 76%
    14:00 +2°C° 0 mm 7 mps 745 mmHg 74%
    15:00 0°C° 0.2 mm 7 mps 744 mmHg 77%
    16:00 0°C° 0.2 mm 7 mps 742 mmHg 80%
    17:00 0°C° 0.2 mm 8 mps 741 mmHg 83%
    18:00 0°C° 0.9 mm 8 mps 739 mmHg 86%
    19:00 0°C° 0.9 mm 9 mps 738 mmHg 89%
    20:00 -1°C° 0.9 mm 9 mps 737 mmHg 92%
    21:00 0°C° 0.6 mm 9 mps 735 mmHg 91%
    22:00 0°C° 0.6 mm 9 mps 734 mmHg 90%
    23:00 +1°C° 0.6 mm 9 mps 732 mmHg 88%

    Day after tomorrow, 23 February, Sunday

    Time Temperature Precipitation Wind Pressure Humidity
    00:00 +1°C° 0.3 mm 8 mps 732 mmHg 87%
    01:00 0°C° 0.3 mm 7 mps 732 mmHg 86%
    02:00 0°C° 0.3 mm 7 mps 732 mmHg 85%
    03:00 +1°C° 0.2 mm 6 mps 731 mmHg 81%
    04:00 +1°C° 0.2 mm 6 mps 731 mmHg 78%
    05:00 -1°C° 0.2 mm 6 mps 731 mmHg 74%
    06:00 -1°C° 0 mm 6 mps 731 mmHg 75%
    07:00 0°C° 0 mm 5 mps 732 mmHg 76%
    08:00 -1°C° 0 mm 5 mps 732 mmHg 77%
    09:00 -1°C° 0 mm 6 mps 732 mmHg 75%
    10:00 -1°C° 0 mm 6 mps 732 mmHg 73%
    11:00 0°C° 0 mm 7 mps 732 mmHg 72%
    12:00 -1°C° 0.1 mm 7 mps 732 mmHg 77%
    13:00 -1°C° 0.1 mm 6 mps 732 mmHg 82%
    14:00 -1°C° 0.1 mm 6 mps 732 mmHg 87%
    15:00 -1°C° 0.2 mm 6 mps 732 mmHg 86%
    16:00 -1°C° 0.2 mm 6 mps 732 mmHg 85%
    17:00 -1°C° 0.2 mm 6 mps 731 mmHg 84%
    18:00 -1°C° 0.3 mm 6 mps 731 mmHg 87%
    19:00 -1°C° 0.3 mm 6 mps 731 mmHg 90%
    20:00 -1°C° 0.3 mm 6 mps 731 mmHg 93%
    21:00 -1°C° 0.4 mm 6 mps 731 mmHg 92%
    22:00 -1°C° 0.4 mm 5 mps 730 mmHg 91%
    23:00 -1°C° 0.4 mm 5 mps 730 mmHg 91%

    24 February, Monday

    Time Temperature Precipitation Wind Pressure Humidity
    00:00 -1°C° 0.5 mm 5 mps 730 mmHg 92%
    01:00 -1°C° 0.5 mm 4 mps 730 mmHg 94%
    02:00 -1°C° 0.5 mm 4 mps 730 mmHg 96%
    03:00 -1°C° 0.1 mm 4 mps 730 mmHg 96%
    04:00 0°C° 0.1 mm 3 mps 730 mmHg 96%
    05:00 0°C° 0.1 mm 3 mps 730 mmHg 96%
    06:00 0°C° 0.2 mm 3 mps 731 mmHg 94%
    07:00 -1°C° 0.2 mm 4 mps 731 mmHg 91%
    08:00 -1°C° 0.2 mm 4 mps 732 mmHg 89%
    09:00 -1°C° 0 mm 4 mps 733 mmHg 81%
    10:00 -1°C° 0 mm 5 mps 734 mmHg 73%
    11:00 -1°C° 0 mm 6 mps 735 mmHg 65%
    12:00 -1°C° 0 mm 6 mps 735 mmHg 64%
    13:00 -1°C° 0 mm 6 mps 736 mmHg 62%
    14:00 -1°C° 0 mm 6 mps 737 mmHg 61%
    15:00 -1°C° 0 mm 6 mps 737 mmHg 61%
    16:00 -1°C° 0 mm 5 mps 737 mmHg 61%
    17:00 -1°C° 0 mm 5 mps 738 mmHg 61%
    18:00 -2°C° 0 mm 5 mps 738 mmHg 63%
    19:00 -2°C° 0 mm 5 mps 739 mmHg 66%
    20:00 -2°C° 0 mm 5 mps 740 mmHg 68%
    21:00 -3°C° 0 mm 4 mps 740 mmHg 69%
    22:00 -3°C° 0 mm 4 mps 740 mmHg 71%
    23:00 -2°C° 0 mm 3 mps 740 mmHg 72%

    25 February, Tuesday

    Time Temperature Precipitation Wind Pressure Humidity
    00:00 -4°C° 0 mm 3 mps 740 mmHg 73%
    01:00 -4°C° 0 mm 3 mps 741 mmHg 74%
    02:00 -4°C° 0 mm 3 mps 741 mmHg 75%
    03:00 -3°C° 0 mm 2 mps 740 mmHg 78%
    04:00 -3°C° 0 mm 2 mps 740 mmHg 81%
    05:00 -3°C° 0 mm 2 mps 740 mmHg 84%
    06:00 -3°C° 0 mm 2 mps 739 mmHg 84%
    07:00 -2°C° 0 mm 2 mps 739 mmHg 83%
    08:00 -2°C° 0 mm 3 mps 739 mmHg 83%
    09:00 -2°C° 0 mm 3 mps 738 mmHg 82%
    10:00 -1°C° 0 mm 3 mps 738 mmHg 82%
    11:00 0°C° 0 mm 3 mps 737 mmHg 81%
    12:00 0°C° 0 mm 3 mps 737 mmHg 81%
    13:00 0°C° 0 mm 3 mps 736 mmHg 80%
    14:00 +1°C° 0 mm 3 mps 735 mmHg 79%
    15:00 -1°C° 0.1 mm 4 mps 734 mmHg 84%
    16:00 -1°C° 0.1 mm 4 mps 733 mmHg 90%
    17:00 -2°C° 0.1 mm 5 mps 732 mmHg 95%
    18:00 -1°C° 0.4 mm 4 mps 732 mmHg 96%
    19:00 -1°C° 0.4 mm 4 mps 731 mmHg 96%
    20:00 0°C° 0.4 mm 4 mps 730 mmHg 96%
    21:00 0°C° 0.1 mm 4 mps 730 mmHg 95%
    22:00 +1°C° 0.1 mm 3 mps 730 mmHg 93%
    23:00 +1°C° 0.1 mm 3 mps 729 mmHg 92%

    26 February, Wednesday

    Time Temperature Precipitation Wind Pressure Humidity
    00:00 0°C° 0 mm 3 mps 729 mmHg 91%
    01:00 0°C° 0 mm 3 mps 729 mmHg 91%
    02:00 0°C° 0 mm 3 mps 729 mmHg 90%
    03:00 0°C° 0 mm 3 mps 729 mmHg 90%
    04:00 -1°C° 0 mm 3 mps 729 mmHg 91%
    05:00 -1°C° 0 mm 3 mps 728 mmHg 91%
    06:00 -1°C° 0 mm 3 mps 728 mmHg 91%
    07:00 0°C° 0 mm 3 mps 728 mmHg 91%
    08:00 -1°C° 0 mm 4 mps 728 mmHg 91%
    09:00 -1°C° 0 mm 4 mps 728 mmHg 87%
    10:00 -1°C° 0 mm 4 mps 729 mmHg 84%
    11:00 0°C° 0 mm 4 mps 729 mmHg 80%
    12:00 0°C° 0.2 mm 4 mps 729 mmHg 83%
    13:00 0°C° 0.2 mm 4 mps 729 mmHg 85%
    14:00 0°C° 0.2 mm 4 mps 729 mmHg 88%
    15:00 0°C° 0.1 mm 4 mps 729 mmHg 87%
    16:00 0°C° 0.1 mm 3 mps 730 mmHg 87%
    17:00 0°C° 0.1 mm 3 mps 730 mmHg 87%
    18:00 0°C° 0 mm 3 mps 730 mmHg 86%
    19:00 0°C° 0 mm 3 mps 731 mmHg 85%
    20:00 0°C° 0 mm 3 mps 731 mmHg 84%
    21:00 0°C° 0 mm 3 mps 731 mmHg 86%
    22:00 -1°C° 0 mm 2 mps 732 mmHg 88%
    23:00 -1°C° 0 mm 2 mps 732 mmHg 89%
    Show more